This is the latest recevied weather packets stored in our database for station/object W1SCW. If no packets are shown the sender has not sent any weather packets the latest 10 day(s).
| Time | Temp. | Humidity | Pressure | Rain* | Wind** | Luminosity | Snow |
|---|---|---|---|---|---|---|---|
| 1777565550 | 25.56° C | 83% | 1009.3 hPa | 0 mm | - | 295 W/m² | - |
| 1777565247 | 26.11° C | 83% | 1009.5 hPa | 0 mm | - | 266 W/m² | - |
| 1777564943 | 26.67° C | 81% | 1009.6 hPa | 0 mm | - | 273 W/m² | - |
| 1777564638 | 27.78° C | 80% | 1009.3 hPa | 0 mm | - | 618 W/m² | - |
| 1777564334 | 27.22° C | 81% | 1009.2 hPa | 0 mm | - | 545 W/m² | - |
| 1777564030 | 27.22° C | 80% | 1009.3 hPa | 0 mm | - | 842 W/m² | - |
| 1777563726 | 27.22° C | 83% | 1009.4 hPa | 0 mm | - | 464 W/m² | - |
| 1777563422 | 26.11° C | 86% | 1009.5 hPa | 0 mm | - | 635 W/m² | - |
| 1777563117 | 25° C | 86% | 1009.5 hPa | 0 mm | - | 462 W/m² | - |
| 1777562812 | 25° C | 87% | 1009.6 hPa | 0 mm | - | 283 W/m² | - |
| 1777562510 | 25° C | 87% | 1009.5 hPa | 0 mm | - | 402 W/m² | - |
| 1777562208 | 25° C | 88% | 1009.5 hPa | 0 mm | - | 346 W/m² | - |
| 1777561906 | 25° C | 89% | 1009.6 hPa | 0 mm | - | 430 W/m² | - |
| 1777561602 | 24.44° C | 88% | 1009.7 hPa | 0 mm | - | 279 W/m² | - |
| 1777561298 | 25° C | 88% | 1009.4 hPa | 0 mm | - | 237 W/m² | - |
| 1777560998 | 25° C | 88% | 1009.3 hPa | 0 mm | - | 339 W/m² | - |
| 1777560693 | 25° C | 88% | 1009.3 hPa | 0 mm | - | 342 W/m² | - |
| 1777560391 | 25° C | 88% | 1009.3 hPa | 0 mm | - | 239 W/m² | - |
| 1777560089 | 25.56° C | 87% | 1009.4 hPa | 0 mm | - | 377 W/m² | - |
| 1777559785 | 25.56° C | 87% | 1009.1 hPa | 0 mm | - | 351 W/m² | - |
| 1777559482 | 25.56° C | 86% | 1009.3 hPa | 0 mm | - | 348 W/m² | - |
| 1777559179 | 25.56° C | 88% | 1009.3 hPa | 0 mm | - | 399 W/m² | - |
| 1777558879 | 25° C | 88% | 1009.3 hPa | 0 mm | - | 397 W/m² | - |
| 1777558575 | 24.44° C | 89% | 1009.3 hPa | 0 mm | - | 255 W/m² | - |
| 1777558271 | 24.44° C | 89% | 1009.4 hPa | 0 mm | - | 237 W/m² | - |
* Rain latest hour (hover to see other rain measurements)
** Current wind speed in m/s (hover to see current wind gust speed)